Regional Weather Roundup
Issued by NWS Green Bay, WI

Home | Current Version | Previous Version | Text Only | Print | Product List | Glossary On
Versions: 1 2 3 4 5 6 7 8 9 10 11 12 13 14 15 16 17 18 19 20 21 22 23 24 25 26 27 28 29 30 31 32 33 34 35 36 37 38 39 40 41 42 43 44 45 46 47 48 49 50
120
ASUS43 KGRB 250600
RWRGRB

NORTH-CENTRAL AND NORTHEAST WISCONSIN REGIONAL WEATHER ROUNDUP
NATIONAL WEATHER SERVICE GREEN BAY WI
100 AM CDT MON JUL 25 2016

WIZ005-009-010>012-018-019-250700-
NORTH CENTRAL WISCONSIN

CITY           SKY/WX    TMP DP  RH WIND       PRES   REMARKS
IRONWOOD       CLEAR     66  63  88 W8        29.88R
MANITOWISH WTR NOT AVBL
ARBOR VITAE    NOT AVBL
EAGLE RIVER    NOT AVBL
LAND O LAKES   NOT AVBL
RHINELANDER    CLEAR     63  61  93 W6        29.94R
PHILLIPS       NOT AVBL
ANTIGO         NOT AVBL
TOMAHAWK       NOT AVBL
MERRILL        NOT AVBL
$$

WIZ013-073-250700-
NORTHEAST WISCONSIN

CITY           SKY/WX    TMP DP  RH WIND       PRES   REMARKS
IRON MOUNTAIN  CLEAR     68  61  78 CALM      29.87R
MARINETTE        N/A    N/A N/A N/A MISG        N/A
$$

WIZ017-030-035>037-045-250700-
CENTRAL WISCONSIN

CITY           SKY/WX    TMP DP  RH WIND       PRES   REMARKS
MEDFORD        NOT AVBL
WAUSAU         CLEAR     67  62  84 NW7       29.92R
MOSINEE        NOT AVBL
MARSHFIELD     CLEAR     66  61  84 W5        29.95R
WISC RAPIDS    CLEAR     67  61  81 W5        29.96R
STEVENS POINT  NOT AVBL
WAUPACA        NOT AVBL
SHAWANO        NOT AVBL
CLINTONVILLE   CLEAR     68  61  77 W3        29.91R
WAUTOMA        CLEAR     67  65  93 W6        29.95R
$$

WIZ038-039-048-051-250700-
FOX VALLEY

CITY           SKY/WX    TMP DP  RH WIND       PRES   REMARKS
NWS GREEN BAY  CLOUDY    70  67  90 W7        29.90R
APPLETON       NOT AVBL
OSHKOSH        CLOUDY    72  64  76 W6        29.92R
FOND DU LAC    CLOUDY    73  65  75 NW10      29.93R
$$

WIZ022-050-052-250700-
EAST CENTRAL WISCONSIN

CITY           SKY/WX    TMP DP  RH WIND       PRES   REMARKS
EPHRAIM        FAIR      71  66  84 N3        29.86R
WASHINGTON ISL NOT AVBL
STURGEON BAY   CLOUDY    73  67  81 W6        29.88R
MANITOWOC      NOT AVBL
SHEBOYGAN      MOCLDY    75  66  73 NW7       29.91R
$$

LMZ563-521-522-541>543-250700-
LAKESHORE

STATION/POSITION TIME  TEMP    WIND        PRES    VSBY  WAVE
                       AIR SEA DIR/SP/G                  HT/PER
                 (UTC) (F)     (DEG/KT/KT) (MB)    (MI)  (FT/S)
SHEBOYGAN LKSHOR 0500   78     270/  6/  7 1011.8R
KEWAUNEE LKSHORE 0500   73     300/  3/  4 1010.5R
NORTHPORT PIER   0500   74     340/  7/ 10 1010.2R
N MID LAKE BUOY  0450   70 68  320/  6/  6 1008.9R         3/ 6
CHAMBERS ISLAND  0500   74     280/  5/ 10 1010.2R
MENOMINEE LKSHOR 0500   75     290/  5/  8 1009.8R
$$




USA.gov is the U.S. government's official web portal to all federal, state and local government web resources and services.